TimeMDT,TemperatureF,Dew PointF,Humidity,Sea Level PressureIn,VisibilityMPH,Wind Direction,Wind SpeedMPH,Gust SpeedMPH,PrecipitationIn,Events,Conditions,WindDirDegrees,DateUTC
12:53 AM,62.1,55.9,80,29.97,10.0,WNW,4.6,-,0.00,,Overcast,300,2013-08-02 06:53:00
1:53 AM,62.1,55.0,78,29.94,10.0,Calm,Calm,-,N/A,,Overcast,0,2013-08-02 07:53:00
2:53 AM,61.0,55.9,83,29.95,10.0,Calm,Calm,-,N/A,,Overcast,0,2013-08-02 08:53:00
3:53 AM,61.0,55.9,83,29.94,10.0,NE,5.8,-,N/A,,Overcast,50,2013-08-02 09:53:00
4:53 AM,61.0,55.0,81,29.94,10.0,ENE,8.1,-,0.00,,Mostly Cloudy,60,2013-08-02 10:53:00
5:53 AM,61.0,55.9,83,29.96,10.0,South,3.5,-,N/A,,Overcast,170,2013-08-02 11:53:00
6:53 AM,59.0,57.0,93,29.98,4.0,South,5.8,-,0.04,Rain,Heavy Rain,180,2013-08-02 12:53:00
7:05 AM,57.2,57.2,100,30.00,2.5,Calm,Calm,-,0.06,Rain,Heavy Rain,0,2013-08-02 13:05:00
7:36 AM,59.0,57.2,94,29.99,6.0,Calm,Calm,-,0.22,Rain,Light Rain,0,2013-08-02 13:36:00
7:53 AM,59.0,57.0,93,29.95,10.0,North,3.5,-,0.23,Rain,Light Rain,350,2013-08-02 13:53:00
8:02 AM,59.0,57.2,94,29.98,10.0,NW,3.5,-,0.00,Rain,Light Rain,320,2013-08-02 14:02:00
8:53 AM,60.1,57.9,93,29.96,10.0,East,4.6,-,0.00,,Overcast,100,2013-08-02 14:53:00
9:01 AM,60.8,57.2,88,29.99,10.0,East,5.8,-,0.00,Rain,Light Rain,90,2013-08-02 15:01:00
9:26 AM,60.8,57.2,88,30.00,10.0,East,6.9,-,0.00,,Mostly Cloudy,90,2013-08-02 15:26:00
9:53 AM,61.0,57.9,90,29.98,10.0,ENE,10.4,-,0.00,,Overcast,70,2013-08-02 15:53:00
10:08 AM,60.8,57.2,88,30.00,10.0,East,10.4,-,N/A,,Overcast,80,2013-08-02 16:08:00
10:21 AM,60.8,57.2,88,30.00,10.0,ENE,11.5,-,0.00,Rain,Light Rain,60,2013-08-02 16:21:00
10:53 AM,62.1,57.9,86,29.97,10.0,ENE,15.0,-,0.00,,Overcast,70,2013-08-02 16:53:00
11:13 AM,62.6,57.2,82,29.99,10.0,ENE,15.0,-,N/A,,Overcast,70,2013-08-02 17:13:00
11:41 AM,64.4,57.2,77,29.99,10.0,ENE,16.1,-,N/A,,Overcast,70,2013-08-02 17:41:00
11:53 AM,64.0,57.9,80,29.97,10.0,ENE,13.8,-,N/A,,Overcast,70,2013-08-02 17:53:00
12:26 PM,64.4,57.2,77,29.99,10.0,East,12.7,-,N/A,,Overcast,80,2013-08-02 18:26:00
12:53 PM,64.9,55.9,73,29.96,10.0,East,10.4,-,N/A,,Overcast,80,2013-08-02 18:53:00
1:53 PM,66.0,55.0,68,29.96,10.0,East,16.1,21.9,0.00,Rain,Light Rain,100,2013-08-02 19:53:00
2:53 PM,69.1,55.0,61,29.95,10.0,East,17.3,-,0.03,,Scattered Clouds,100,2013-08-02 20:53:00
3:02 PM,68.0,55.4,64,29.98,10.0,East,17.3,27.6,N/A,Thunderstorm,Mostly Cloudy,100,2013-08-02 21:02:00
3:37 PM,66.2,57.2,73,29.98,8.0,East,13.8,-,0.00,Rain,Light Rain,100,2013-08-02 21:37:00
3:45 PM,66.2,55.4,68,29.97,10.0,East,15.0,23.0,0.00,Rain-Thunderstorm,Light Rain,100,2013-08-02 21:45:00
3:53 PM,66.0,57.0,73,29.96,9.0,East,11.5,-,0.01,Rain-Thunderstorm,Rain,90,2013-08-02 21:53:00
4:45 PM,59.0,53.6,82,29.99,4.0,ESE,16.1,27.6,0.33,Rain-Thunderstorm,Rain,120,2013-08-02 22:45:00
4:53 PM,61.0,55.9,83,29.97,10.0,East,11.5,-,0.33,Rain-Thunderstorm,Light Rain,100,2013-08-02 22:53:00
5:28 PM,60.8,55.4,82,30.02,1.8,Variable,6.9,-,0.11,Rain-Thunderstorm,Heavy Thunderstorms and Rain,0,2013-08-02 23:28:00
5:34 PM,60.8,55.4,82,30.04,3.0,WSW,8.1,17.3,0.14,Rain-Thunderstorm,Thunderstorms and Rain,240,2013-08-02 23:34:00
5:53 PM,61.0,55.0,81,30.02,6.0,Variable,3.5,-,0.16,Rain-Thunderstorm,Thunderstorms and Rain,0,2013-08-02 23:53:00
6:46 PM,60.8,57.2,88,30.03,10.0,NE,8.1,-,0.01,Rain,Light Rain,40,2013-08-03 00:46:00
6:53 PM,61.0,57.0,87,30.02,10.0,NNE,8.1,-,0.01,,Overcast,30,2013-08-03 00:53:00
7:53 PM,61.0,57.9,90,30.04,10.0,Calm,Calm,-,0.00,,Overcast,0,2013-08-03 01:53:00
8:53 PM,61.0,57.9,90,30.05,10.0,Calm,Calm,-,N/A,,Overcast,0,2013-08-03 02:53:00
9:53 PM,60.1,57.9,93,30.06,10.0,ESE,3.5,-,0.00,,Overcast,120,2013-08-03 03:53:00
10:53 PM,59.0,55.9,90,30.07,10.0,East,11.5,-,N/A,,Mostly Cloudy,100,2013-08-03 04:53:00
11:53 PM,57.0,53.1,87,30.08,10.0,ENE,11.5,-,N/A,,Clear,70,2013-08-03 05:53:00